GFSGL_500_rhum_000.txt.gz
RH
43 45 49 50 48 46 38 27 34 74 72 77 69 44 28 22 27 23 69 98 100 100 100 100 100 100 100 99 98 98 100 100 97 99 100 100 100 96 81 74 92 84 81
52 54 50 46 43 29 28 63 100 92 89 44 24 19 21 27 48 74 100 100 100 100 100 100 93 97 99 98 100 100 99 93 89 83 85 74 71 69 63 74 72 70 74
58 58 46 40 81 85 75 90 84 71 56 26 20 22 47 70 96 100 100 100 100 100 100 100 97 97 92 96 96 98 94 87 83 83 85 90 84 78 76 68 66 65 61
96 87 39 30 28 41 82 94 66 46 27 22 40 74 81 82 87 94 100 100 100 100 100 100 100 97 97 99 97 98 100 99 95 91 86 83 85 87 83 76 75 72 66
97 84 24 24 28 36 30 30 29 20 28 72 85 83 84 82 77 84 91 94 97 99 98 100 100 100 100 97 94 96 93 88 84 82 80 77 69 60 59 56 60 58 56
99 22 22 30 32 29 28 22 22 31 86 91 85 77 60 40 34 27 25 26 34 54 76 85 85 83 87 84 78 70 68 55 50 41 28 16 12 10 10 10 10 10 13
18 26 33 37 29 20 20 23 40 92 96 85 59 35 21 18 17 17 17 17 18 21 24 26 39 52 57 57 56 56 45 26 19 14 14 17 16 13 12 10 11 10 8
33 42 34 27 18 20 24 65 100 96 72 40 23 20 19 17 16 14 14 13 12 13 14 16 20 23 24 25 26 20 15 14 14 17 16 15 20 23 23 22 22 23 28
38 36 26 17 22 26 86 100 91 58 28 24 21 17 15 16 18 19 20 19 18 16 13 12 12 16 18 17 16 16 15 17 16 19 31 46 63 72 79 71 69 53 33
39 28 20 25 23 84 100 78 49 28 26 21 16 19 25 31 35 36 35 31 28 26 24 19 11 10 13 17 18 17 17 17 36 65 45 55 71 82 92 88 94 87 84
28 25 27 26 78 100 79 49 31 28 22 19 26 40 48 59 76 75 75 69 49 29 25 23 14 9 11 15 18 17 22 57 36 41 44 43 48 80 100 100 100 100 100
27 30 30 49 100 88 56 36 32 28 20 27 57 80 80 82 76 72 69 79 69 26 24 20 12 12 13 14 20 38 62 36 52 58 61 67 69 63 59 71 88 95 100
31 33 36 98 96 64 44 36 36 26 21 51 74 84 90 94 97 100 97 57 22 28 26 45 81 66 46 68 93 56 39 59 55 48 44 45 65 77 73 63 80 69 82
32 38 90 100 67 52 42 42 38 26 31 60 79 89 99 100 100 100 99 61 66 100 100 100 100 100 100 100 67 52 63 44 28 23 22 20 16 24 63 74 62 79 100
43 94 100 71 57 50 46 44 40 26 37 58 81 94 96 100 100 100 100 100 100 100 100 100 100 100 100 83 69 71 54 37 31 31 28 29 29 28 18 22 61 98 100
100 100 75 59 56 53 52 50 45 28 38 56 85 100 98 96 100 100 100 100 100 100 100 100 100 100 100 86 80 74 58 45 42 41 40 39 37 33 32 25 17 20 22
100 84 56 50 56 57 58 55 49 28 38 64 87 100 98 97 100 100 100 100 100 100 100 100 100 100 100 96 94 80 68 62 57 52 47 46 47 44 42 36 31 15 20
98 53 33 33 61 64 64 61 55 29 39 66 90 100 99 91 96 100 100 100 100 100 100 100 100 100 100 100 100 95 83 73 67 62 54 47 32 24 26 37 41 41 19
86 44 27 38 67 69 70 68 64 38 32 61 89 93 98 86 93 99 100 100 100 100 100 100 100 100 100 100 100 100 100 91 82 78 69 58 41 29 21 15 25 41 47
78 49 29 46 73 72 75 73 70 57 29 48 77 98 98 93 87 94 100 100 100 100 100 100 100 100 100 100 100 100 100 96 93 89 81 72 58 45 36 21 17 21 32
65 52 28 64 80 77 78 76 70 70 46 29 60 87 100 97 88 85 95 98 100 100 100 100 100 100 100 100 100 100 100 100 100 100 95 82 68 57 49 34 22 23 27
72 47 49 81 83 80 77 73 71 70 68 43 32 67 89 99 98 97 92 96 99 99 100 100 100 100 100 100 98 99 99 100 100 100 100 93 82 71 60 50 35 29 29
82 65 76 92 83 76 68 70 70 65 67 67 46 33 74 93 98 100 100 100 100 100 100 100 99 100 100 100 100 100 100 100 100 100 100 97 92 84 74 66 52 39 37
98 93 97 91 79 62 57 67 72 62 61 64 69 52 32 74 97 99 100 100 100 100 100 100 100 100 100 100 100 100 100 100 100 100 99 94 88 88 89 87 83 66 53
100 99 100 88 70 60 54 63 70 63 57 57 62 70 61 34 61 99 100 100 100 100 100 100 100 100 100 100 100 100 100 100 100 100 100 100 98 91 90 92 94 92 83
100 100 95 83 73 66 60 62 72 66 59 54 55 65 73 66 46 47 97 100 100 100 100 100 100 100 100 100 100 100 100 100 100 100 100 100 100 97 90 89 94 97 96

GFSGL_500_rhum_003.txt.gz
RH
50 53 54 49 52 57 65 91 100 100 58 29 30 22 22 24 21 22 37 60 80 82 84 87 87 96 98 100 100 100 100 100 90 91 100 100 100 100 100 95 66 100 96
53 53 57 60 58 72 99 100 95 47 28 19 18 17 16 22 32 81 89 80 85 88 94 98 98 100 100 100 96 88 88 82 96 72 89 100 100 100 99 100 93 88 93
56 59 94 100 100 100 47 29 28 23 20 16 13 16 23 53 94 93 82 79 77 79 81 83 88 98 99 100 100 100 100 100 98 91 90 85 93 98 96 88 87 78 71
63 60 59 57 53 31 26 21 20 20 13 13 17 42 85 98 94 79 42 33 29 33 42 53 64 84 95 98 100 100 100 100 100 99 90 88 82 80 76 74 70 68 67
58 49 39 31 25 24 26 28 22 14 17 21 52 88 89 70 50 26 20 19 19 18 18 18 19 22 40 78 91 98 100 100 100 100 100 100 100 100 99 97 85 81 80
45 31 24 25 31 34 32 24 15 19 23 86 90 76 45 25 19 21 19 17 15 15 15 15 16 16 18 21 43 72 78 91 97 94 89 84 72 71 82 82 83 85 76
24 22 26 35 39 36 26 18 22 28 86 92 66 34 27 24 19 15 17 20 19 18 18 15 13 12 13 15 19 26 45 54 54 52 53 44 32 27 30 28 22 20 22
25 33 39 47 37 27 23 26 30 79 88 63 35 30 26 18 20 33 39 36 35 42 35 28 21 16 13 10 13 15 19 25 28 29 24 17 16 18 18 18 17 16 15
37 47 48 34 27 28 33 36 73 93 69 38 34 32 20 37 54 58 57 62 72 72 73 51 31 24 19 12 10 13 14 17 18 16 14 14 15 18 26 38 42 38 30
28 26 24 27 31 37 43 79 100 74 46 39 38 24 37 63 69 64 66 69 80 65 62 78 48 26 22 15 10 11 15 16 16 15 14 21 55 50 55 67 82 77 84
20 25 27 31 43 51 74 100 77 54 44 41 37 26 50 69 75 82 86 86 93 83 72 70 34 22 20 13 8 11 16 16 14 14 44 43 42 47 50 57 76 97 100
25 24 44 57 53 87 100 81 58 49 47 45 32 30 58 78 89 91 98 100 94 51 31 26 26 19 11 7 8 12 14 15 28 45 43 51 60 65 74 79 84 85 92
18 26 53 56 95 100 81 63 55 53 50 48 27 36 72 86 85 98 100 100 100 100 98 100 100 100 93 74 52 31 44 53 45 49 48 37 24 18 31 52 68 74 70
29 38 48 99 100 76 63 58 58 58 55 49 26 51 83 90 92 100 100 100 100 100 100 100 100 100 100 100 99 65 48 57 37 21 24 26 25 24 22 19 24 50 72
36 62 98 100 82 52 51 65 67 66 58 50 26 63 81 92 98 95 100 100 100 100 100 100 100 100 100 100 88 72 53 25 30 34 34 34 33 30 28 29 22 19 23
92 93 100 92 50 32 60 69 70 70 64 50 26 65 91 85 92 93 100 100 100 100 100 100 100 100 100 97 75 49 32 40 44 43 39 38 38 38 35 33 32 22 14
89 98 100 76 39 36 66 74 74 64 57 57 26 54 89 87 80 91 100 100 100 100 100 100 100 100 100 100 86 75 61 56 56 53 48 38 32 30 26 21 22 31 29
86 98 100 79 47 38 71 77 77 70 63 59 32 35 80 94 73 85 100 100 100 100 100 100 100 100 100 100 100 98 92 77 69 66 58 46 38 33 28 15 14 18 29
81 96 97 75 55 41 79 80 77 63 62 60 52 24 55 89 81 80 94 100 100 100 100 100 100 100 100 100 100 100 100 99 90 82 74 66 51 43 38 26 17 17 18
82 96 96 76 53 62 85 81 68 54 59 56 56 38 26 71 90 81 84 96 100 100 100 100 100 100 100 100 100 100 100 100 100 100 90 72 60 55 48 34 24 25 24
80 84 96 75 64 82 89 77 55 50 58 53 52 52 32 30 76 88 83 85 99 100 100 100 100 100 100 100 100 100 100 100 100 100 100 86 76 62 57 48 35 31 31
88 82 96 88 90 92 91 67 54 49 57 53 47 48 51 32 33 76 91 89 88 97 100 100 100 100 100 100 100 100 100 100 100 100 100 100 95 81 69 61 53 42 40
94 94 100 99 97 96 85 69 59 52 58 56 49 44 45 50 37 32 72 92 96 95 96 98 99 100 100 100 100 100 100 100 100 100 100 100 100 100 90 82 75 69 58
92 100 100 100 99 94 84 70 62 60 60 64 56 49 44 46 52 49 33 65 91 98 100 100 100 100 100 100 100 100 100 100 100 100 100 100 100 100 96 92 90 89 90
100 100 100 100 97 97 89 76 71 66 63 69 68 60 51 47 48 52 54 42 57 94 100 100 100 100 100 100 100 100 100 100 100 100 100 100 100 100 100 99 94 90 90
100 100 99 99 100 99 92 84 79 73 71 68 79 76 64 58 54 50 50 56 50 61 99 100 100 100 100 100 100 100 100 100 100 100 100 100 100 100 100 100 99 92 89

GFSGL_500_rhum_006.txt.gz
RH
33 30 39 45 53 56 56 56 51 44 35 26 21 19 18 13 11 11 14 25 38 64 99 100 98 99 99 96 98 99 92 95 87 98 100 100 100 100 100 100 100 100 95
35 38 54 54 52 55 52 40 28 21 20 20 20 16 13 12 17 32 72 86 87 83 79 74 64 62 73 87 99 98 98 94 91 81 69 92 100 100 100 100 100 83 96
44 53 59 52 48 38 27 18 20 24 28 24 19 15 18 22 68 80 77 53 38 30 25 22 21 21 19 21 47 74 95 100 89 80 86 75 72 98 96 84 84 96 89
57 48 49 36 16 10 17 21 30 29 26 19 18 22 33 72 71 58 35 26 23 21 20 19 19 20 19 18 18 18 34 72 97 93 92 90 88 80 80 76 86 97 98
52 42 22 7 7 14 20 21 19 20 18 20 27 42 90 77 52 32 28 24 19 17 20 22 20 17 15 16 18 18 17 21 63 87 100 100 100 100 100 96 85 80 77
36 12 6 9 14 16 19 21 21 20 22 30 44 100 80 46 36 32 25 25 43 54 54 51 38 30 27 20 15 15 16 17 20 64 87 96 100 100 100 100 96 100 98
8 8 13 18 40 46 25 30 25 22 38 62 100 74 50 41 36 30 25 48 58 68 63 56 54 57 56 39 24 14 14 15 17 23 62 72 92 95 90 85 84 79 80
10 13 15 21 19 88 37 42 29 44 84 100 63 51 46 43 34 26 41 66 76 87 83 79 76 69 57 60 33 19 13 12 14 17 34 51 51 45 44 38 34 31 30
11 12 15 27 56 100 100 33 47 98 97 66 55 51 48 44 28 37 74 81 92 99 100 100 96 72 50 68 40 23 15 11 12 14 17 29 34 28 21 16 15 16 17
10 13 16 24 91 100 57 49 98 90 68 58 56 57 54 30 36 75 85 86 97 100 100 91 62 62 93 72 32 23 15 10 11 12 13 16 18 17 14 22 43 47 51
14 15 18 45 100 44 41 95 88 62 59 60 62 59 44 30 68 82 82 90 99 100 100 79 39 27 24 20 20 20 13 10 12 14 16 17 15 27 46 44 47 52 55
15 15 17 24 37 48 88 88 52 62 67 64 59 57 32 44 86 78 88 100 100 100 100 100 100 100 87 35 13 10 10 12 15 16 15 28 48 48 50 52 54 62 72
16 16 20 44 75 88 89 52 45 70 68 65 56 55 30 64 85 90 98 100 100 100 100 100 100 100 100 100 88 29 15 15 22 44 52 51 47 36 25 20 21 29 46
18 34 66 81 86 95 70 32 51 74 72 70 53 49 29 69 88 90 98 100 100 100 100 100 100 100 100 100 100 100 89 69 58 49 29 22 24 25 25 24 20 17 16
36 67 76 88 96 93 62 40 43 78 75 68 50 45 28 66 89 76 92 100 100 100 100 100 100 100 100 100 94 78 60 35 28 30 32 33 32 28 26 24 22 18 13
58 74 75 76 95 91 75 47 49 80 76 59 51 49 32 49 85 77 88 98 100 100 100 100 100 100 100 100 63 38 42 45 43 42 40 38 35 32 27 21 18 19 19
72 76 71 74 95 92 77 59 64 82 63 48 48 41 40 30 84 81 85 99 100 100 100 100 100 100 100 100 100 50 47 56 61 55 41 32 32 33 24 17 15 15 15
81 80 74 76 93 89 77 63 78 78 55 44 43 37 37 30 60 85 81 99 100 100 100 100 100 100 100 100 100 100 98 82 74 74 53 44 40 34 33 24 17 16 15
59 90 78 75 85 94 78 76 88 72 56 45 44 36 31 36 30 76 87 86 100 100 100 100 100 100 100 100 100 100 100 100 100 92 79 56 47 42 42 32 24 21 20
51 84 81 80 88 92 88 92 90 71 58 48 47 41 35 33 38 32 79 86 86 99 100 100 100 100 100 100 100 100 100 100 100 100 100 88 57 49 52 42 34 29 28
78 87 88 88 97 98 95 96 85 73 61 53 48 52 42 35 33 37 30 67 86 83 96 100 100 100 100 100 100 100 100 100 100 100 100 99 88 76 66 57 47 41 38
86 81 84 88 98 99 97 96 88 77 69 58 53 53 54 43 37 35 39 33 52 88 86 89 99 100 100 100 100 100 100 100 100 100 100 100 100 100 92 80 66 60 54
82 82 85 94 96 97 97 95 93 85 73 63 56 52 61 58 48 40 37 39 38 39 78 95 92 95 100 100 100 100 100 100 100 100 100 100 100 100 100 100 97 90 84
86 84 92 94 95 97 97 96 96 88 72 62 57 55 58 73 66 53 47 42 40 42 38 68 98 99 98 100 100 100 100 100 100 100 100 100 100 100 100 100 100 98 93
91 94 87 82 88 99 100 98 94 85 72 64 58 57 60 74 75 65 55 48 43 44 50 45 67 100 100 100 100 100 100 100 100 100 100 100 100 100 100 100 100 99 99
90 91 90 91 91 98 100 100 95 89 76 64 59 58 62 74 77 71 58 53 47 48 54 61 54 83 100 100 100 100 100 100 100 100 100 100 100 100 100 100 100 100 100

GFSGL_500_rhum_009.txt.gz
RH
31 34 36 40 42 41 46 38 19 8 9 13 19 22 21 21 18 16 18 22 43 78 78 72 65 60 62 60 68 84 80 78 75 71 93 90 100 100 100 100 96 100 100
38 38 40 34 35 37 24 9 9 11 17 30 21 18 19 20 20 23 29 81 88 68 47 32 28 26 25 24 25 22 23 35 49 58 76 100 98 98 97 100 100 100 100
40 37 35 38 38 24 12 11 11 13 35 59 38 20 19 23 29 48 90 80 56 38 33 30 26 21 20 20 20 21 22 21 22 31 57 84 90 100 94 95 99 100 100
38 38 38 36 22 13 12 10 19 93 68 28 65 30 34 46 84 86 66 47 40 37 31 23 27 40 42 36 25 19 16 19 20 19 24 57 91 100 100 96 74 89 100
45 41 33 19 12 12 10 13 100 95 41 90 100 44 83 80 73 54 47 45 41 28 24 37 58 66 63 56 37 31 25 19 16 19 18 22 70 100 100 100 76 74 85
43 30 14 12 10 8 12 74 100 100 79 100 76 97 74 62 53 50 46 42 26 31 59 67 73 79 77 73 67 52 44 30 19 14 17 17 24 87 100 100 93 83 68
32 16 12 10 8 10 15 60 100 100 96 100 85 76 58 54 53 47 40 29 58 74 72 73 83 93 93 84 77 74 60 54 31 15 16 17 17 60 91 100 94 89 80
18 13 9 7 9 13 18 42 100 92 100 85 68 58 58 58 51 48 33 71 80 92 95 84 90 88 96 100 98 81 76 56 40 16 13 16 16 28 75 90 94 88 88
12 9 7 12 13 13 22 100 73 56 84 54 63 65 57 56 56 31 72 81 85 95 93 93 94 99 58 45 60 70 61 64 30 14 13 14 15 19 52 64 70 58 54
10 8 12 16 16 14 17 31 49 88 44 67 70 62 60 54 41 42 78 78 84 100 100 100 100 100 100 30 50 73 62 37 22 12 12 13 14 15 36 48 44 34 24
8 14 18 18 21 41 63 76 84 48 51 70 70 67 51 45 32 62 66 74 87 100 100 100 100 100 100 98 30 20 22 23 15 11 11 12 13 14 18 20 19 16 22
14 17 22 25 52 70 88 88 80 46 51 67 73 61 46 47 30 68 65 83 93 100 100 100 100 100 100 100 99 21 17 15 11 11 12 13 15 17 18 27 42 47 51
18 20 25 49 68 74 73 85 80 54 47 68 69 47 44 44 29 74 70 85 99 100 100 100 100 100 100 100 98 44 12 12 14 16 16 23 36 48 52 52 46 36 30
20 25 31 62 74 74 72 87 85 70 59 74 61 45 42 33 29 71 81 91 100 100 100 100 100 100 100 100 100 100 100 82 71 66 62 61 56 41 26 21 20 17 14
21 30 38 68 75 64 72 91 85 74 64 77 55 44 39 31 30 47 68 84 98 100 100 100 100 100 100 90 69 73 69 62 54 45 37 32 30 30 28 24 20 17 15
19 33 35 66 78 70 77 92 86 71 75 76 55 44 40 34 32 32 77 73 87 98 100 100 100 100 100 100 78 60 62 56 50 45 44 40 37 33 26 21 18 19 17
24 38 34 46 75 71 70 89 86 78 86 72 57 46 42 36 32 31 63 74 88 91 100 100 100 100 100 100 100 82 58 65 57 49 43 37 32 26 19 15 15 16 17
28 43 39 43 74 75 74 89 90 90 87 69 59 48 42 40 33 30 30 70 74 92 96 100 100 100 100 100 100 100 100 80 70 64 38 27 29 29 23 19 17 17 18
33 45 44 59 81 81 81 89 88 89 83 70 57 51 43 43 39 32 31 35 80 82 94 97 100 100 99 100 100 98 97 100 100 97 89 70 49 34 34 29 26 24 24
36 42 71 84 84 80 80 87 90 92 86 76 64 54 46 41 48 40 34 33 34 70 80 90 97 100 100 100 100 100 100 100 100 100 100 100 90 64 53 50 38 32 31
40 63 75 75 78 78 82 90 93 93 89 78 68 56 46 42 45 52 43 37 34 34 52 79 79 95 100 100 100 100 100 100 100 100 100 100 100 89 87 81 68 51 43
42 50 69 78 78 82 85 88 92 93 88 80 69 57 46 42 44 59 60 48 42 36 33 36 75 81 87 97 100 100 100 100 100 100 100 100 100 100 100 97 92 87 74
50 52 73 85 85 77 75 86 96 95 88 81 71 56 48 43 46 61 71 63 53 45 38 34 34 56 92 90 94 100 100 100 100 100 100 100 100 100 100 100 100 100 100
57 69 91 94 84 81 84 88 95 94 90 83 72 60 50 45 50 62 71 71 59 45 42 39 38 40 44 92 100 100 100 100 100 100 100 99 100 100 100 100 100 100 100
88 96 94 93 84 81 87 90 94 96 93 91 80 65 53 47 49 62 67 66 57 48 45 44 44 49 54 53 96 100 100 100 100 100 100 100 99 100 100 100 100 100 100
91 92 90 86 85 82 84 89 93 98 100 100 91 73 61 50 50 62 68 67 62 56 51 49 50 55 63 66 69 100 100 100 100 100 100 100 100 100 100 100 100 100 100

GFSGL_500_rhum_012.txt.gz
RH
51 49 45 45 48 48 46 44 33 21 17 11 10 19 37 100 100 56 56 29 31 44 67 90 95 82 74 59 45 37 35 35 34 48 62 69 96 100 100 90 85 80 93
43 45 46 50 47 47 46 36 25 14 12 8 51 74 86 100 100 73 61 85 100 95 79 66 56 46 40 37 34 30 28 27 25 25 28 39 53 86 100 100 88 95 100
53 51 52 48 50 49 38 24 16 11 8 19 28 90 100 100 100 80 70 82 66 53 47 44 42 40 36 29 24 22 23 22 20 20 22 23 26 33 79 100 93 76 100
48 48 49 50 53 39 25 16 10 8 11 16 65 100 100 100 68 62 74 58 52 49 47 43 32 27 32 39 45 45 46 46 43 34 21 18 20 21 24 92 96 81 86
42 52 53 54 43 27 17 11 8 12 14 41 99 100 100 56 65 68 58 54 50 44 31 42 51 47 48 53 56 55 64 62 50 43 32 23 16 19 20 29 98 82 72
57 62 56 46 29 18 11 8 11 13 17 83 100 92 42 70 60 60 54 47 40 28 53 46 56 61 69 76 85 81 87 89 80 69 47 40 21 16 18 19 61 100 83
65 59 43 26 18 13 9 12 15 23 49 66 77 74 65 62 60 53 43 34 28 53 52 64 78 89 100 98 94 85 88 100 84 76 63 50 29 18 16 18 27 85 92
62 44 27 19 13 9 12 16 17 58 45 79 79 55 69 66 59 45 40 31 52 60 76 93 93 99 100 100 98 71 51 97 97 72 64 50 32 17 16 18 21 74 91
47 32 20 13 10 12 16 22 47 80 86 79 52 55 69 64 52 43 35 30 63 76 96 95 97 100 100 100 100 72 53 82 72 53 68 53 31 15 16 16 18 66 86
35 22 14 10 13 16 20 42 72 84 78 69 54 53 68 63 44 38 25 41 64 79 92 100 100 100 100 100 100 95 30 78 79 53 51 35 17 14 16 16 17 61 83
20 16 10 12 17 18 25 59 66 69 76 74 60 64 70 54 42 35 25 45 60 80 95 100 100 100 100 100 100 97 29 21 30 30 23 15 12 14 15 15 17 49 63
16 12 12 16 18 21 38 63 71 72 82 81 71 70 70 50 40 35 25 46 63 81 96 96 100 100 100 100 100 100 32 20 21 17 13 13 13 13 14 15 18 32 40
14 12 13 15 17 24 45 67 66 72 87 82 72 74 64 49 40 36 24 46 63 86 95 94 100 100 100 100 100 100 87 23 14 13 13 13 13 14 15 16 17 19 21
13 14 14 13 20 28 49 75 71 77 86 83 74 76 58 46 39 35 27 39 67 87 98 92 100 100 100 93 88 99 100 100 83 55 42 37 35 36 44 48 53 51 46
14 16 12 13 26 33 41 76 75 72 87 82 82 72 56 47 39 37 29 26 63 84 96 90 94 100 100 99 80 77 77 78 78 76 70 64 56 46 37 27 21 16 14
16 16 13 17 33 40 43 71 77 76 86 87 79 69 55 48 40 40 35 26 47 69 84 91 88 98 100 100 100 92 75 69 60 54 51 44 38 34 30 25 22 18 17
19 16 16 24 40 44 57 88 93 82 88 88 80 71 58 51 43 38 41 31 26 65 73 87 89 93 100 100 100 100 99 82 73 62 56 48 41 35 31 28 23 19 18
23 18 26 35 42 61 86 93 93 97 98 90 84 74 61 52 42 37 41 39 28 26 66 78 89 91 94 100 100 100 100 100 90 69 36 31 33 28 21 20 20 17 18
29 29 36 47 71 81 82 86 88 95 93 91 85 75 63 51 42 37 37 45 40 30 28 64 79 91 93 94 99 100 100 100 100 100 93 69 45 29 27 24 21 21 22
36 38 44 46 59 77 83 87 92 92 89 88 84 75 64 52 43 37 36 42 50 44 36 28 50 76 89 93 96 99 100 100 100 100 100 100 100 91 63 49 45 35 29
43 45 56 52 55 81 87 96 89 83 89 92 87 78 66 55 45 38 38 42 55 58 50 43 30 29 68 81 93 96 99 100 100 100 100 100 100 100 93 85 81 74 58
50 53 60 56 67 95 92 79 76 79 91 94 90 82 73 60 48 40 40 48 58 64 63 48 37 34 27 40 76 92 96 98 100 100 100 100 100 100 100 100 100 100 92
60 66 76 77 94 100 96 85 83 85 88 93 94 90 83 67 52 43 40 49 58 61 59 51 41 35 34 31 30 58 92 100 100 100 100 100 100 100 100 99 98 100 100
71 80 91 95 92 94 94 90 88 88 90 98 100 99 93 76 60 49 43 45 56 59 56 54 49 42 38 37 36 39 46 94 100 100 100 100 100 100 100 100 100 100 100
73 82 86 89 91 96 99 100 99 96 92 98 100 99 99 90 74 60 50 45 48 52 51 50 50 46 43 42 42 47 52 62 98 100 100 100 100 98 98 100 100 99 100
77 82 89 94 98 100 100 100 100 100 100 100 100 99 100 99 88 75 61 54 49 50 52 54 53 51 48 48 51 56 65 67 91 100 100 100 100 100 100 99 100 100 100

GFSGL_500_rhum_015.txt.gz
RH
51 54 53 45 40 34 32 31 30 33 44 43 30 19 11 11 43 73 56 96 99 96 70 60 60 59 54 50 49 49 49 48 51 48 44 39 38 41 52 86 89 84 83
66 57 47 39 31 26 31 33 44 52 44 32 19 10 11 16 20 42 97 100 100 67 62 56 49 44 45 43 39 36 35 36 36 32 33 33 32 30 28 37 64 93 85
53 44 40 36 28 23 34 50 53 49 30 18 11 10 15 17 38 82 97 95 61 60 51 46 42 38 31 31 41 46 47 50 51 37 25 23 22 23 26 25 30 46 86
45 41 34 25 24 32 48 57 54 33 21 12 10 13 20 47 66 64 62 61 58 50 45 38 30 28 45 43 50 55 56 53 51 50 59 57 41 36 24 22 22 30 36
43 32 29 28 39 52 60 55 28 20 12 9 13 17 30 43 68 60 64 60 51 42 37 25 35 49 60 68 77 84 94 96 78 71 68 66 67 56 47 28 19 21 23
36 34 34 43 55 66 59 34 22 12 10 14 19 30 50 65 58 63 63 55 43 36 21 32 49 61 84 94 98 100 100 100 96 92 86 92 90 69 49 38 21 18 21
39 41 46 51 65 60 38 23 12 12 16 39 70 62 69 60 54 57 63 49 40 29 25 50 61 86 95 95 97 100 100 100 99 60 56 100 100 86 64 43 33 17 18
49 51 55 60 62 43 24 14 12 13 18 46 65 62 74 59 57 64 58 45 39 25 43 55 81 92 97 94 97 100 100 100 91 38 45 100 96 84 74 50 40 16 17
59 65 64 63 45 27 16 13 13 16 22 45 57 64 78 71 67 66 49 40 34 27 55 72 90 100 100 100 100 100 100 100 58 68 69 79 96 83 69 52 34 16 18
66 69 63 46 30 19 13 14 13 19 29 53 56 70 77 78 70 62 45 37 28 32 63 89 99 100 100 100 100 100 100 68 28 52 86 56 51 69 60 40 17 16 18
70 60 44 29 21 14 14 12 15 21 38 54 56 76 78 76 70 54 45 36 27 36 61 88 100 100 100 100 100 100 100 40 23 25 44 57 54 48 33 18 15 17 18
57 40 29 22 16 15 15 11 20 26 50 63 69 80 85 76 65 53 44 36 31 31 60 87 100 100 100 100 100 100 100 58 19 21 20 20 18 16 14 15 16 16 17
37 29 23 17 16 17 13 13 27 30 48 74 73 79 83 76 68 53 44 37 36 25 54 83 98 99 100 100 89 96 100 96 36 16 14 14 14 13 14 14 15 16 17
30 24 18 17 19 19 14 22 36 38 47 78 81 85 86 77 70 53 45 37 40 27 45 76 96 99 96 100 94 87 77 91 100 76 37 20 15 15 15 15 16 17 19
25 19 17 18 21 20 22 34 43 44 63 86 90 92 87 77 67 52 45 36 38 35 29 67 88 92 99 100 100 94 97 75 68 79 87 86 82 75 72 62 55 52 48
18 18 19 22 26 25 33 38 47 76 90 94 98 98 85 75 64 53 44 36 36 40 27 44 76 92 100 100 100 100 100 93 73 64 56 46 41 39 36 33 29 26 21
17 20 23 29 31 32 41 64 85 83 83 88 99 93 82 75 65 53 43 36 35 42 39 26 61 84 95 100 100 100 100 100 94 63 65 61 52 42 35 30 26 24 21
20 23 30 37 38 40 44 58 79 84 85 90 94 89 84 79 64 53 44 36 34 37 47 39 27 55 82 96 100 100 100 100 100 99 57 37 48 44 42 36 29 26 24
23 30 38 42 43 52 52 53 79 88 97 100 95 88 88 78 66 56 47 38 35 38 48 52 46 31 39 78 96 100 100 100 100 100 100 97 56 30 31 29 28 23 20
29 39 46 48 52 61 61 62 86 99 91 85 84 90 89 81 72 61 49 40 36 39 48 61 61 52 37 29 62 91 100 100 100 100 100 100 100 100 70 38 36 31 26
40 49 55 58 63 72 72 91 100 90 85 82 79 88 91 83 78 68 53 42 37 37 46 54 60 60 43 34 30 36 79 99 100 100 100 100 100 100 100 96 83 71 68
49 57 64 74 80 90 99 100 100 100 91 86 89 92 97 93 84 75 63 51 42 38 39 47 50 50 49 47 39 31 29 53 94 100 100 100 100 100 100 100 100 100 100
60 67 72 82 90 94 99 100 100 99 98 98 98 96 99 99 92 85 76 63 50 43 38 39 40 40 39 41 41 36 32 30 34 79 100 100 100 100 100 100 100 100 100
71 85 77 81 93 94 94 93 93 96 99 100 100 100 100 99 96 92 89 79 65 54 48 40 39 40 40 41 41 38 36 35 34 33 59 100 100 100 100 100 100 100 100
89 98 99 100 100 100 100 100 100 98 100 100 100 100 100 100 100 96 97 94 80 67 54 53 46 42 42 43 43 42 40 38 39 45 46 56 99 100 100 100 100 100 100
100 100 100 100 100 100 100 100 100 100 100 100 100 100 100 100 100 100 100 100 99 83 68 58 58 54 46 45 46 46 48 50 54 59 65 66 89 100 100 100 100 100 100

GFSGL_500_rhum_018.txt.gz
RH
67 67 60 50 44 41 36 29 29 29 30 36 40 50 50 38 16 8 11 18 24 46 51 55 61 54 47 45 42 37 30 27 21 18 21 28 36 41 49 52 50 50 53
71 68 59 53 46 38 33 35 35 38 44 48 54 47 31 14 8 12 18 23 50 62 60 55 53 46 40 34 22 22 35 38 36 33 33 33 34 30 31 40 40 38 37
69 64 57 50 46 44 43 42 39 45 48 51 41 27 14 9 13 22 38 53 58 62 62 52 42 37 27 21 34 38 49 60 70 71 67 60 54 42 36 33 30 35 34
70 65 57 56 53 49 44 41 46 50 52 38 24 14 10 13 28 48 54 56 58 57 61 45 37 30 21 36 49 67 77 86 92 98 99 94 85 82 52 44 49 26 26
70 64 64 58 49 42 42 49 52 51 37 24 14 11 12 19 40 54 60 59 57 66 56 41 34 22 38 55 70 77 82 86 92 92 99 99 100 100 81 58 52 56 30
74 69 68 50 46 46 48 59 52 38 25 15 12 12 16 37 53 55 68 64 68 64 44 35 27 32 50 77 87 92 98 98 98 100 100 100 100 100 90 83 63 63 50
79 72 54 52 52 55 60 53 36 25 16 13 12 16 29 56 62 66 74 76 72 54 42 35 24 42 67 82 91 99 100 100 100 100 100 100 99 78 52 84 100 79 63
76 64 60 59 61 64 51 34 25 16 14 14 12 20 40 56 55 73 79 78 67 49 37 31 27 51 82 87 100 100 100 100 99 93 89 65 61 57 94 100 100 83 58
72 64 64 63 64 51 34 24 15 14 15 12 17 25 45 52 62 78 81 72 56 45 36 28 35 66 89 92 100 100 100 100 73 36 28 68 97 91 100 100 90 76 54
70 72 67 66 52 33 23 13 14 16 16 12 24 30 54 64 69 79 74 65 52 43 36 29 43 71 90 92 100 98 100 100 52 24 27 74 78 78 94 87 77 73 55
78 72 69 52 32 22 12 13 16 18 14 18 29 30 53 66 69 76 72 61 49 41 34 30 45 76 90 98 100 97 93 100 83 22 26 37 62 61 59 71 64 56 44
77 75 51 30 21 12 13 16 19 20 18 30 36 35 57 71 80 79 68 60 46 40 32 32 37 69 90 97 100 100 93 98 100 39 18 21 23 28 36 38 33 24 18
80 55 31 21 11 12 16 18 23 23 28 36 38 43 70 79 82 78 70 59 46 38 32 35 30 61 88 98 100 100 99 86 96 99 37 16 16 16 16 17 17 17 17
52 34 20 10 12 15 19 23 28 30 33 39 56 74 80 80 84 79 70 57 46 37 33 37 29 49 85 98 96 100 99 94 76 84 100 56 22 14 14 15 16 16 17
38 20 10 12 16 17 21 32 34 35 49 69 74 76 80 84 88 82 68 53 45 38 33 37 37 29 63 85 90 100 100 98 90 73 61 95 98 75 45 23 20 17 17
23 11 12 16 19 20 26 37 41 40 45 61 74 78 84 90 88 80 67 56 46 39 34 38 45 33 41 82 93 96 100 100 100 89 72 59 49 62 84 88 81 71 56
11 12 15 22 22 26 35 41 46 51 46 63 80 83 89 87 89 83 69 58 46 40 35 38 48 49 34 44 86 98 100 100 100 100 75 72 65 48 39 30 24 21 19
13 14 20 26 27 35 45 47 50 57 53 69 83 81 77 83 93 84 73 61 48 40 35 38 47 55 54 44 36 76 94 100 100 100 99 58 64 60 53 44 36 30 26
15 15 28 29 37 45 52 52 61 62 75 95 83 79 79 80 86 89 82 70 56 42 36 34 41 50 57 58 41 32 68 93 100 100 100 100 88 44 47 44 41 36 31
14 22 31 32 47 53 60 63 74 88 97 99 97 92 88 89 89 95 94 79 67 50 40 36 34 37 44 46 51 45 34 48 94 100 100 100 100 100 78 39 36 35 34
16 29 32 43 57 59 64 73 88 96 96 95 99 99 100 97 94 97 99 89 80 65 51 42 37 34 34 34 33 33 38 39 32 83 100 100 100 100 100 100 85 58 48
21 35 38 55 62 66 67 80 90 98 100 100 100 98 100 100 100 100 100 98 92 80 68 53 44 39 34 33 32 30 30 32 35 31 55 100 100 100 100 100 100 98 95
30 42 50 65 74 79 80 86 96 99 100 100 100 100 100 100 100 100 100 100 99 98 83 72 56 43 39 36 35 34 32 33 33 32 30 35 92 100 100 100 100 100 100
39 49 59 75 83 88 90 94 97 100 100 100 99 100 100 100 100 100 100 100 100 100 100 92 74 57 47 45 40 37 36 35 35 34 33 32 32 66 100 100 100 100 100
46 59 69 88 95 95 94 94 94 96 96 98 100 100 100 100 100 100 100 100 100 100 99 100 97 73 59 54 54 43 39 39 40 39 38 36 36 38 44 98 100 100 100
49 65 83 90 96 98 97 94 95 98 100 100 100 98 100 100 100 100 100 100 100 100 100 100 100 94 78 66 66 58 45 45 49 55 58 58 56 57 55 54 90 100 100

GFSGL_500_rhum_021.txt.gz
RH
31 35 53 66 74 68 59 50 48 45 41 40 38 39 43 47 34 21 9 10 13 23 37 47 52 54 55 47 40 35 30 22 20 24 29 28 30 27 26 24 25 31 50
39 51 64 72 68 61 58 59 55 48 48 40 42 47 47 31 16 10 11 13 30 36 51 53 57 60 55 39 33 28 23 36 41 45 58 60 60 58 47 42 31 32 34
51 57 69 69 65 64 72 65 57 49 40 47 49 41 27 13 10 12 12 23 35 46 56 59 66 60 42 34 29 24 39 54 64 63 69 78 75 75 72 69 57 48 36
53 67 74 72 72 80 70 65 51 42 47 47 37 27 10 10 13 12 17 33 52 58 63 67 66 49 35 32 24 40 60 67 75 85 89 89 91 92 90 80 88 79 68
67 80 80 79 84 77 70 50 45 50 47 38 26 9 10 13 12 14 28 52 53 70 74 71 56 40 33 28 32 56 69 75 91 96 98 97 100 94 96 95 98 100 94
83 88 90 94 86 69 52 50 54 52 38 23 9 10 13 13 13 24 48 55 69 74 75 60 45 37 32 28 50 76 76 89 99 100 100 98 84 94 99 100 100 100 100
96 99 100 88 72 58 60 57 53 41 21 8 9 12 15 12 21 41 60 66 74 74 65 53 43 33 31 31 63 78 88 100 100 100 82 48 41 86 87 93 94 98 94
100 98 86 78 68 65 61 57 49 23 8 10 12 15 14 17 28 48 61 67 74 75 58 46 40 32 29 36 73 82 93 100 98 99 33 24 25 40 62 64 48 49 68
99 96 80 73 86 75 60 56 30 8 9 12 13 18 15 26 31 46 65 74 84 68 54 42 36 32 29 43 73 78 98 100 94 97 26 24 44 74 78 72 99 100 100
100 96 97 100 89 77 57 48 12 9 12 13 17 20 24 36 37 57 75 86 77 61 51 41 32 31 29 50 74 84 100 100 89 100 24 21 37 63 66 92 100 100 100
100 100 100 97 87 63 50 19 10 12 15 14 21 24 31 39 50 76 85 83 66 56 46 37 31 32 29 48 74 88 100 100 84 97 62 18 24 53 61 79 87 89 91
97 100 99 88 70 54 31 10 12 16 18 20 27 32 42 64 82 86 88 73 61 52 42 36 30 32 30 46 75 95 100 100 93 79 100 30 18 23 46 68 72 67 68
100 100 87 71 60 39 14 11 14 20 20 30 33 44 68 76 78 87 84 70 60 49 41 38 32 33 33 36 71 94 100 100 98 78 93 99 23 17 20 23 27 31 34
100 93 69 66 48 25 10 12 18 23 28 37 39 43 58 74 80 90 83 74 61 51 42 38 32 33 40 31 60 86 95 100 100 95 71 97 100 32 16 17 19 19 18
98 84 67 54 38 9 13 15 23 28 39 42 45 45 58 78 86 87 83 79 63 53 42 36 33 34 42 43 33 68 90 97 100 100 88 62 83 100 81 32 20 18 17
94 75 58 41 10 12 15 19 27 36 44 45 50 48 74 87 82 79 84 78 67 57 45 37 33 37 45 51 43 37 76 90 99 100 98 86 57 48 93 100 93 52 28
85 70 37 12 11 16 15 23 34 42 48 48 54 62 91 79 76 76 82 85 78 66 54 40 34 34 40 47 54 42 37 81 92 100 100 87 84 60 42 36 52 97 100
67 28 14 11 16 17 20 29 42 50 52 56 69 93 92 89 83 86 90 93 93 79 65 49 37 33 32 36 42 52 37 34 78 93 100 100 86 79 68 48 35 28 27
22 15 14 14 20 18 26 38 48 55 59 73 82 88 92 89 89 94 98 99 100 93 78 64 50 39 34 31 31 34 40 45 35 62 92 99 100 93 66 69 58 48 38
16 17 16 20 21 25 33 46 53 60 68 77 85 84 86 91 95 99 100 100 100 100 92 79 66 52 40 33 29 28 28 29 33 38 48 89 97 100 99 55 57 51 41
18 18 20 28 22 31 39 55 64 67 74 83 88 88 91 98 99 99 100 100 100 100 99 94 82 70 58 44 34 29 28 28 26 26 33 40 87 98 100 100 74 44 42
23 22 28 30 25 40 48 64 76 82 86 89 91 90 90 96 98 98 99 99 100 100 100 100 96 91 73 56 47 36 31 29 28 28 28 32 34 83 98 100 100 99 74
26 28 34 32 30 50 60 73 84 88 90 92 92 95 93 93 96 96 97 99 100 100 100 100 100 98 98 82 63 48 36 35 31 29 29 31 31 30 64 100 100 100 100
31 35 36 32 33 57 70 77 93 98 93 92 96 100 100 99 96 94 96 98 99 100 100 100 100 100 98 95 82 70 58 46 37 33 32 33 31 31 31 39 98 100 100
34 39 38 30 31 58 80 90 91 93 95 96 95 98 93 90 97 100 96 99 100 100 100 100 100 100 93 94 94 83 72 63 55 40 37 40 44 40 33 33 33 73 100
47 44 38 28 31 50 77 96 98 98 97 96 94 90 82 72 77 90 85 82 100 100 100 100 100 100 99 85 92 94 91 73 67 63 46 44 51 61 59 50 42 40 47